Location: Lombard
(41.8800°N, 88.0080°W)
Time: 05:31:16
(UTC-05:00)

ITUPSAT 1 - Visible Passes

Search period start: 22 May 2022 00:00
Search period end: 01 June 2022 00:00
Orbit: 700 x 712 km, 98.6° (Epoch: 21 May)

Date Brightness Start Highest point End Pass type
(mag) Time Alt. Az. Time Alt. Az. Time Alt. Az.
22 May ? 20:57:48 10° NNE 21:02:31 60° ESE 21:07:11 10° S visible
22 May ? 22:36:56 10° NNW 22:39:48 16° WNW 22:42:39 10° W visible
23 May ? 21:41:46 10° N 21:46:21 50° WNW 21:50:55 10° SW visible
24 May ? 20:47:54 10° NNE 20:52:29 47° E 20:57:03 10° S visible
24 May ? 22:26:31 10° NNW 22:29:54 20° WNW 22:33:18 10° WSW visible
25 May ? 21:31:40 10° N 21:36:23 63° WNW 21:41:04 10° SSW visible
26 May ? 22:16:12 10° NNW 22:20:00 24° WNW 22:23:48 10° WSW visible
27 May ? 21:21:37 10° NNE 21:26:24 80° WNW 21:31:08 10° SSW visible
28 May ? 22:05:57 10° N 22:10:04 30° WNW 22:14:11 10° SW visible
29 May ? 21:11:36 10° NNE 21:16:22 81° ESE 21:21:08 10° SSW visible
29 May ? 22:51:34 10° NW 22:53:28 12° WNW 22:55:22 10° W visible
30 May ? 21:55:45 10° N 22:00:07 37° WNW 22:04:29 10° SW visible
31 May ? 21:01:37 10° NNE 21:06:20 63° ESE 21:11:03 10° S visible
31 May ? 22:40:52 10° NNW 22:43:35 15° WNW 22:46:18 10° W visible
